Location: Songkhla
(7.2000°N, 100.6000°E)
Time: 04:04:11
(UTC+07:00)

BRICSAT 2 - Pass Details

Date: 18 June 2021
Orbit: 295 x 638 km, 28.5° (Epoch: 28 July)

Event Time Altitude Azimuth Distance (km) Brightness Sun altitude
Rises 23:03:08 0° 290° (WNW) 2,886 - -54.2°
Reaches altitude 10° 23:05:30 10° 284° (WNW) 2,013 - -54.5°
Maximum altitude 23:10:06 47° 210° (SSW) 856 - -55.1°
Drops below altitude 10° 23:14:48 10° 137° (SE) 2,055 - -55.6°
Sets 23:17:15 0° 131° (SE) 2,952 - -55.9°
